Alma, GA

11:07 AM EDT on August 25, 2016 (GMT -0400)
Bacon County

Weather History for KAMG - November, 2013

Change the Weather History Date:

Friday, November 22, 2013

  Actual Average Record
Temperature  
Mean Temperature 68 °F 58 °F  
Max Temperature 77 °F 70 °F 83 °F (2011)
Min Temperature 58 °F 47 °F 26 °F (1981)
Degree Days  
Heating Degree Days 0 8  
Month to date heating degree days 120 124  
Since 1 July heating degree days 164 174  
Cooling Degree Days 3 1  
Month to date cooling degree days 24 34  
Year to date cooling degree days 2320 2459  
Growing Degree Days 17 (Base 50)    
Moisture  
Dew Point 63 °F    
Average Humidity 87    
Maximum Humidity 100    
Minimum Humidity 74    
Precipitation  
Precipitation 0.50 in 0.08 in 0.92 in (2009)
Month to date precipitation 1.12 1.78  
Year to date precipitation 46.83 42.66  
Snow  
Snow 0.00 in 0.00 in 0.00 in ()
Month to date snowfall 0.0 0.0  
Since 1 July snowfall 0.0 0.0  
Since 1 September snowfall 0.0 0.0  
Snow Depth 0.00 in    
Sea Level Pressure  
Sea Level Pressure 30.23 in    
Wind  
Wind Speed 1 mph (NNE)    
Max Wind Speed 8 mph    
Max Gust Speed 13 mph    
Visibility 4 miles    
Events Fog , Rain    
T = Trace of Precipitation, MM = Missing Value Source: NWS Daily Summary

Daily Weather History Graph

Daily Weather History Graph

Search for Another Location

Airport or City:

Trip Planner

Search our weather history database for the weather conditions in past years. The results will help you decide how hot, cold, wet, or windy it might be!

Date:

Astronomy

Nov. 22, 2013 Rise Set
Actual Time 7:04 AM EST 5:28 PM EST
Civil Twilight 6:38 AM EST 5:54 PM EST
Nautical Twilight 6:08 AM EST 6:23 PM EST
Astronomical Twilight 5:39 AM EST 6:53 PM EST
Moon 9:54 PM EST (11/22) 10:50 AM EST (11/22)
Length of Visible Light 11h 16m
Length of Day
10h 23m
Waning Gibbous, 78% of the Moon is Illuminated
Nov 22
Waning Gibbous
Nov 25
Last Quarter
Dec 2
New
Dec 9
First Quarter
Dec 17
Full

Hourly Weather History & Observations

Time (EST) Temp. Dew Point Humidity Pressure Visibility Wind Dir Wind Speed Gust Speed Precip Events Conditions
12:53 AM 61.0 °F 60.1 °F 97% 30.29 in 10.0 mi NE 3.5 mph - N/A   Overcast
1:53 AM 61.0 °F 60.1 °F 97% 30.28 in 9.0 mi Calm Calm - N/A   Overcast
2:53 AM 61.0 °F 60.1 °F 97% 30.27 in 8.0 mi Calm Calm - N/A   Overcast
3:53 AM 61.0 °F 60.1 °F 97% 30.26 in 10.0 mi Calm Calm - N/A   Overcast
4:53 AM 60.1 °F 60.1 °F 100% 30.26 in 9.0 mi Calm Calm - N/A   Overcast
5:53 AM 61.0 °F 61.0 °F 100% 30.27 in 7.0 mi Calm Calm - N/A   Overcast
6:36 AM 60.8 °F 60.8 °F 100% 30.28 in 1.8 mi North 4.6 mph - 0.04 in Rain Heavy Rain
6:53 AM 59.0 °F 59.0 °F 100% 30.27 in 2.0 mi North 8.1 mph - 0.15 in Rain Rain
6:58 AM 59.0 °F 59.0 °F 100% 30.28 in 3.0 mi North 4.6 mph - 0.01 in Rain Light Rain
7:07 AM 59.0 °F 59.0 °F 100% 30.28 in 7.0 mi NNW 4.6 mph - 0.01 in   Overcast
7:27 AM 59.0 °F 59.0 °F 100% 30.29 in 1.8 mi Variable 3.5 mph - 0.02 in Rain Rain
7:39 AM 59.0 °F 59.0 °F 100% 30.29 in 0.8 mi North 5.8 mph - 0.10 in Rain Heavy Rain
7:53 AM 59.0 °F 59.0 °F 100% 30.28 in 1.0 mi NNE 4.6 mph - 0.18 in Rain Light Rain
8:12 AM 57.2 °F 57.2 °F 100% 30.29 in 0.5 mi Calm Calm - 0.14 in Fog , Rain Heavy Rain
8:24 AM 59.0 °F 59.0 °F 100% 30.29 in 1.5 mi North 3.5 mph - 0.17 in Rain Light Rain
8:30 AM 59.0 °F 59.0 °F 100% 30.29 in 3.0 mi Calm Calm - 0.17 in Rain Light Rain
8:53 AM 59.0 °F 59.0 °F 100% 30.29 in 5.0 mi North 3.5 mph - 0.17 in   Overcast
9:53 AM 60.1 °F 60.1 °F 100% 30.30 in 5.0 mi North 3.5 mph - N/A   Overcast
10:53 AM 63.0 °F 63.0 °F 100% 30.29 in 5.0 mi NE 3.5 mph - 0.00 in   Overcast
11:43 AM 64.4 °F 64.4 °F 100% 30.28 in 6.0 mi Calm Calm - N/A   Overcast
11:53 AM 66.0 °F 66.0 °F 100% 30.27 in 6.0 mi Calm Calm - N/A   Overcast
12:22 PM 69.8 °F 66.2 °F 88% 30.25 in 8.0 mi Calm Calm - N/A   Mostly Cloudy
12:53 PM 71.1 °F 68.0 °F 90% 30.23 in 8.0 mi NW 3.5 mph - N/A   Partly Cloudy
1:53 PM 73.9 °F 69.1 °F 85% 30.21 in 10.0 mi Calm Calm - N/A   Mostly Cloudy
2:53 PM 75.0 °F 68.0 °F 79% 30.19 in 10.0 mi Calm Calm - N/A   Clear
3:34 PM 77.0 °F 69.8 °F 78% 30.19 in 10.0 mi NW 3.5 mph - N/A   Mostly Cloudy
3:53 PM 77.0 °F 68.0 °F 74% 30.18 in 10.0 mi Calm Calm - N/A   Scattered Clouds
4:53 PM 73.9 °F 69.1 °F 85% 30.19 in 10.0 mi North 3.5 mph - N/A   Mostly Cloudy
5:53 PM 70.0 °F 69.1 °F 97% 30.19 in 10.0 mi Calm Calm - N/A   Overcast
6:53 PM 64.9 °F 64.9 °F 100% 30.19 in 7.0 mi Calm Calm - N/A   Clear
7:53 PM 64.0 °F 64.0 °F 100% 30.19 in 2.5 mi Calm Calm - N/A   Scattered Clouds
7:57 PM 64.4 °F 64.4 °F 100% 30.19 in 0.8 mi Calm Calm - N/A   Scattered Clouds
8:01 PM 62.6 °F 62.6 °F 100% 30.19 in 0.2 mi Calm Calm - N/A Fog Fog
8:07 PM 62.6 °F 62.6 °F 100% 30.19 in 0.2 mi Calm Calm - N/A Fog Fog
8:19 PM 62.6 °F 62.6 °F 100% 30.18 in 0.2 mi Calm Calm - N/A Fog Fog
8:33 PM 62.6 °F 62.6 °F 100% 30.18 in 1.0 mi ESE 4.6 mph - N/A   Mostly Cloudy
8:36 PM 64.4 °F 64.4 °F 100% 30.18 in 2.0 mi East 4.6 mph - N/A   Mostly Cloudy
8:43 PM 64.4 °F 64.4 °F 100% 30.18 in 5.0 mi Calm Calm - N/A   Scattered Clouds
8:53 PM 64.0 °F 64.0 °F 100% 30.17 in 2.5 mi Calm Calm - N/A   Partly Cloudy
9:11 PM 64.4 °F 64.4 °F 100% 30.17 in 3.0 mi ESE 3.5 mph - N/A   Clear
9:53 PM 64.0 °F 64.0 °F 100% 30.17 in 1.5 mi Calm Calm - N/A   Partly Cloudy
10:02 PM 64.4 °F 64.4 °F 100% 30.18 in 0.5 mi Calm Calm - N/A Fog Fog
10:23 PM 62.6 °F 62.6 °F 100% 30.18 in 0.2 mi Calm Calm - N/A Fog Fog
10:34 PM 62.6 °F 62.6 °F 100% 30.18 in 0.2 mi Calm Calm - N/A Fog Fog
10:42 PM 62.6 °F 62.6 °F 100% 30.18 in 0.2 mi Calm Calm - N/A Fog Fog
10:53 PM 62.1 °F 62.1 °F 100% 30.18 in 0.2 mi Calm Calm - N/A Fog Fog
11:00 PM 62.6 °F - N/A% 30.18 in 0.8 mi Calm Calm - N/A   Overcast
11:41 PM 62.6 °F 62.6 °F 100% 30.17 in 2.0 mi Calm Calm - N/A   Overcast
11:50 PM 62.6 °F 62.6 °F 100% 30.17 in 4.0 mi Calm Calm - N/A   Mostly Cloudy
11:53 PM 62.1 °F 62.1 °F 100% 30.16 in 4.0 mi Calm Calm - N/A   Mostly Cloudy